JST502 YMML-YSSY

Flight info

Callsign JST502
Flight time 1h 27m
Altitude 35000
Route ML H129 DOSEL Y59 RIVET
Aircraft A21N/M-SDE2E3FGHIRWXY/LB1

Departure

Time 2026-05-05 07:30
Airport Melbourne Airport (YMML)

Arrival

Time 2026-05-05 08:57
Airport Sydney Kingsford Smith International Airport (YSSY)
Time Latitude Longitude Altitude Speed Heading
2026-05-05 07:10 -37.66827 144.84340 392 ft 0 kts 81°
2026-05-05 07:21 -37.66828 144.84328 392 ft 3 kts 81°
2026-05-05 07:21 -37.66831 144.84302 392 ft 3 kts 81°
2026-05-05 07:22 -37.66834 144.84277 391 ft 3 kts 82°
2026-05-05 07:22 -37.66837 144.84253 391 ft 2 kts 82°
2026-05-05 07:22 -37.66840 144.84231 391 ft 3 kts 61°
2026-05-05 07:22 -37.66852 144.84214 390 ft 3 kts 23°
2026-05-05 07:23 -37.66870 144.84208 390 ft 3 kts 357°
2026-05-05 07:23 -37.66883 144.84210 389 ft 1 kts 351°
2026-05-05 07:23 -37.66886 144.84210 389 ft 0 kts 351°
2026-05-05 07:26 -37.66819 144.84197 391 ft 22 kts 351°
2026-05-05 07:26 -37.66656 144.84167 397 ft 22 kts 355°
2026-05-05 07:26 -37.66546 144.84233 401 ft 17 kts 57°
2026-05-05 07:26 -37.66515 144.84400 404 ft 25 kts 82°
2026-05-05 07:27 -37.66491 144.84625 407 ft 26 kts 82°
2026-05-05 07:27 -37.66457 144.84745 406 ft 8 kts 45°
2026-05-05 07:27 -37.66387 144.84780 411 ft 13 kts
2026-05-05 07:27 -37.66357 144.84783 412 ft 0 kts
2026-05-05 07:28 -37.66261 144.84760 410 ft 23 kts 324°
2026-05-05 07:28 -37.66219 144.84654 408 ft 0 kts 276°
2026-05-05 07:29 -37.66217 144.84625 406 ft 22 kts 275°
2026-05-05 07:29 -37.66185 144.84124 406 ft 92 kts 274°
2026-05-05 07:29 -37.66126 144.83041 412 ft 155 kts 273°
2026-05-05 07:29 -37.66000 144.81526 847 ft 183 kts 277°
2026-05-05 07:30 -37.65915 144.79844 1444 ft 209 kts 263°
2026-05-05 07:30 -37.66125 144.75820 3064 ft 245 kts 270°
2026-05-05 07:30 -37.66047 144.73636 4141 ft 251 kts 273°
2026-05-05 07:31 -37.65875 144.71424 5298 ft 256 kts 275°
2026-05-05 07:31 -37.65630 144.69171 6270 ft 263 kts 279°
2026-05-05 07:31 -37.64898 144.67034 7067 ft 272 kts 307°
2026-05-05 07:31 -37.63432 144.65501 7878 ft 280 kts 328°
2026-05-05 07:32 -37.61664 144.64414 8702 ft 285 kts 334°
2026-05-05 07:32 -37.59797 144.63504 9509 ft 290 kts 337°
2026-05-05 07:32 -37.57863 144.62701 10269 ft 297 kts 341°
2026-05-05 07:32 -37.55720 144.62445 10576 ft 324 kts
2026-05-05 07:33 -37.53499 144.63322 10878 ft 348 kts 28°
2026-05-05 07:33 -37.51561 144.65260 11243 ft 366 kts 47°
2026-05-05 07:33 -37.49919 144.67806 11646 ft 382 kts 54°
2026-05-05 07:33 -37.48398 144.70616 12078 ft 395 kts 58°
2026-05-05 07:34 -37.46930 144.73574 12761 ft 400 kts 59°
2026-05-05 07:34 -37.45489 144.76591 13486 ft 404 kts 60°
2026-05-05 07:34 -37.44054 144.79655 14174 ft 409 kts 60°
2026-05-05 07:34 -37.42617 144.82758 14821 ft 412 kts 60°
2026-05-05 07:35 -37.41176 144.85886 15471 ft 414 kts 60°
2026-05-05 07:35 -37.39727 144.89038 16125 ft 417 kts 60°
2026-05-05 07:35 -37.38272 144.92208 16766 ft 420 kts 60°
2026-05-05 07:35 -37.36805 144.95403 17389 ft 423 kts 60°
2026-05-05 07:36 -37.35330 144.98617 18011 ft 426 kts 60°
2026-05-05 07:36 -37.33845 145.01851 18607 ft 429 kts 60°
2026-05-05 07:36 -37.32346 145.05112 19114 ft 432 kts 60°
2026-05-05 07:36 -37.30834 145.08396 19613 ft 436 kts 60°
2026-05-05 07:37 -37.29311 145.11700 20112 ft 439 kts 60°
2026-05-05 07:37 -37.27775 145.15032 20593 ft 443 kts 60°
2026-05-05 07:37 -37.26227 145.18386 21079 ft 446 kts 60°
2026-05-05 07:37 -37.24669 145.21763 21546 ft 449 kts 60°
2026-05-05 07:38 -37.23097 145.25168 22026 ft 452 kts 60°
2026-05-05 07:38 -37.21516 145.28594 22505 ft 455 kts 61°
2026-05-05 07:38 -37.19923 145.32044 22954 ft 459 kts 61°
2026-05-05 07:38 -37.18336 145.35470 23394 ft 462 kts 60°
2026-05-05 07:39 -37.16599 145.38877 23832 ft 466 kts 57°
2026-05-05 07:39 -37.14763 145.42248 24211 ft 469 kts 56°
2026-05-05 07:39 -37.12884 145.45603 24591 ft 472 kts 55°
2026-05-05 07:39 -37.10976 145.48961 24978 ft 474 kts 55°
2026-05-05 07:40 -37.09047 145.52329 25369 ft 477 kts 55°
2026-05-05 07:40 -37.07107 145.55705 25744 ft 479 kts 55°
2026-05-05 07:40 -37.05154 145.59095 26121 ft 482 kts 55°
2026-05-05 07:40 -37.03186 145.62506 26490 ft 484 kts 55°
2026-05-05 07:41 -37.01210 145.65929 26933 ft 485 kts 55°
2026-05-05 07:41 -36.99240 145.69339 27460 ft 483 kts 55°
2026-05-05 07:41 -36.97273 145.72741 27967 ft 482 kts 55°
2026-05-05 07:41 -36.95308 145.76138 28488 ft 481 kts 55°
2026-05-05 07:42 -36.94008 145.78382 28852 ft 480 kts 55°
2026-05-05 07:42 -36.92053 145.81759 29367 ft 479 kts 55°
2026-05-05 07:42 -36.90101 145.85128 29869 ft 478 kts 55°
2026-05-05 07:42 -36.88153 145.88487 30363 ft 477 kts 55°
2026-05-05 07:43 -36.86208 145.91841 30776 ft 476 kts 54°
2026-05-05 07:43 -36.84269 145.95186 31172 ft 476 kts 54°
2026-05-05 07:43 -36.82329 145.98528 31547 ft 475 kts 54°
2026-05-05 07:43 -36.80389 146.01868 31918 ft 475 kts 54°
2026-05-05 07:44 -36.78453 146.05199 32314 ft 474 kts 54°
2026-05-05 07:44 -36.76515 146.08530 32693 ft 474 kts 54°
2026-05-05 07:44 -36.74581 146.11849 33056 ft 473 kts 54°
2026-05-05 07:44 -36.72645 146.15171 33414 ft 473 kts 53°
2026-05-05 07:45 -36.70709 146.18486 33771 ft 473 kts 53°
2026-05-05 07:45 -36.68773 146.21798 34107 ft 473 kts 53°
2026-05-05 07:45 -36.66836 146.25109 34390 ft 473 kts 53°
2026-05-05 07:45 -36.64896 146.28423 34651 ft 473 kts 53°
2026-05-05 07:46 -36.62955 146.31735 34898 ft 474 kts 52°
2026-05-05 07:46 -36.61023 146.35030 35069 ft 468 kts 52°
2026-05-05 07:46 -36.57187 146.41554 35188 ft 470 kts 52°
2026-05-05 07:47 -36.53286 146.48164 35206 ft 476 kts 52°
2026-05-05 07:47 -36.49375 146.54778 35208 ft 473 kts 52°
2026-05-05 07:48 -36.45487 146.61345 35212 ft 472 kts 52°
2026-05-05 07:48 -36.41585 146.67925 35216 ft 474 kts 52°
2026-05-05 07:49 -36.37695 146.74470 35219 ft 474 kts 51°
2026-05-05 07:49 -36.33789 146.81031 35218 ft 472 kts 51°
2026-05-05 07:50 -36.29878 146.87590 35220 ft 474 kts 51°
2026-05-05 07:50 -36.25948 146.94166 35223 ft 475 kts 51°
2026-05-05 07:51 -36.22022 147.00731 35216 ft 474 kts 51°
2026-05-05 07:51 -36.18094 147.07281 35215 ft 475 kts 51°
2026-05-05 07:52 -36.14137 147.13850 35213 ft 477 kts 51°
2026-05-05 07:52 -36.10173 147.20420 35217 ft 477 kts 50°
2026-05-05 07:53 -36.06207 147.26983 35218 ft 476 kts 50°
2026-05-05 07:53 -36.02234 147.33544 35216 ft 478 kts 50°
2026-05-05 07:54 -35.98246 147.40123 35220 ft 478 kts 50°
2026-05-05 07:54 -35.94262 147.46687 35218 ft 477 kts 50°
2026-05-05 07:55 -35.90277 147.53239 35221 ft 478 kts 50°
2026-05-05 07:55 -35.86276 147.59800 35223 ft 479 kts 50°
2026-05-05 07:56 -35.82272 147.66354 35216 ft 478 kts 50°
2026-05-05 07:56 -35.78271 147.72885 35218 ft 477 kts 49°
2026-05-05 07:57 -35.74265 147.79413 35222 ft 478 kts 49°
2026-05-05 07:57 -35.70252 147.85939 35221 ft 478 kts 49°
2026-05-05 07:58 -35.66244 147.92446 35221 ft 477 kts 49°
2026-05-05 07:58 -35.62232 147.98949 35224 ft 478 kts 49°
2026-05-05 07:59 -35.58212 148.05454 35228 ft 478 kts 49°
2026-05-05 07:59 -35.54220 148.11903 35222 ft 476 kts 49°
2026-05-05 08:00 -35.50208 148.18374 35220 ft 476 kts 49°
2026-05-05 08:00 -35.46189 148.24843 35219 ft 477 kts 49°
2026-05-05 08:01 -35.42168 148.31302 35222 ft 476 kts 49°
2026-05-05 08:01 -35.38147 148.37747 35221 ft 476 kts 49°
2026-05-05 08:02 -35.34124 148.44178 35222 ft 475 kts 49°
2026-05-05 08:02 -35.30100 148.50598 35217 ft 475 kts 49°
2026-05-05 08:03 -35.26079 148.57009 35209 ft 474 kts 49°
2026-05-05 08:03 -35.22058 148.63406 35206 ft 474 kts 48°
2026-05-05 08:04 -35.18036 148.69792 35211 ft 474 kts 48°
2026-05-05 08:04 -35.14010 148.76175 35211 ft 474 kts 48°
2026-05-05 08:05 -35.09992 148.82536 35208 ft 472 kts 48°
2026-05-05 08:05 -35.05979 148.88877 35209 ft 472 kts 48°
2026-05-05 08:06 -35.01956 148.95221 35205 ft 472 kts 48°
2026-05-05 08:06 -34.97939 149.01547 35206 ft 471 kts 48°
2026-05-05 08:07 -34.93932 149.07846 35205 ft 470 kts 47°
2026-05-05 08:07 -34.89918 149.14140 35211 ft 471 kts 47°
2026-05-05 08:08 -34.85897 149.20438 35212 ft 470 kts 47°
2026-05-05 08:08 -34.81885 149.26710 35215 ft 469 kts 47°
2026-05-05 08:09 -34.77896 149.32934 35214 ft 470 kts 47°
2026-05-05 08:09 -34.74124 149.39475 35219 ft 475 kts 54°
2026-05-05 08:10 -34.70845 149.46477 35218 ft 477 kts 56°
2026-05-05 08:10 -34.67679 149.53573 34858 ft 478 kts 57°
2026-05-05 08:11 -34.66113 149.57127 34215 ft 477 kts 57°
2026-05-05 08:11 -34.64549 149.60681 33216 ft 478 kts 57°
2026-05-05 08:11 -34.62977 149.64241 32187 ft 479 kts 58°
2026-05-05 08:11 -34.61397 149.67814 31184 ft 481 kts 58°
2026-05-05 08:12 -34.59815 149.71391 30185 ft 481 kts 59°
2026-05-05 08:12 -34.58233 149.74974 28979 ft 482 kts 59°
2026-05-05 08:12 -34.56649 149.78574 27738 ft 485 kts 59°
2026-05-05 08:12 -34.55061 149.82190 26484 ft 487 kts 60°
2026-05-05 08:13 -34.53467 149.85818 25421 ft 486 kts 60°
2026-05-05 08:13 -34.51892 149.89413 24578 ft 479 kts 60°
2026-05-05 08:13 -34.50332 149.92956 23702 ft 474 kts 60°
2026-05-05 08:13 -34.48788 149.96451 22734 ft 467 kts 60°
2026-05-05 08:14 -34.47260 149.99907 21796 ft 462 kts 60°
2026-05-05 08:14 -34.45755 150.03308 20890 ft 456 kts 60°
2026-05-05 08:14 -34.44263 150.06674 19996 ft 451 kts 60°
2026-05-05 08:14 -34.42788 150.09998 19190 ft 445 kts 60°
2026-05-05 08:15 -34.41354 150.13230 18954 ft 425 kts 60°
2026-05-05 08:15 -34.39993 150.16301 18825 ft 404 kts 60°
2026-05-05 08:15 -34.38696 150.19224 18711 ft 384 kts 60°
2026-05-05 08:15 -34.37459 150.22010 18604 ft 366 kts 60°
2026-05-05 08:16 -34.36281 150.24661 18492 ft 350 kts 60°
2026-05-05 08:16 -34.35153 150.27194 18339 ft 334 kts 60°
2026-05-05 08:16 -34.34073 150.29616 18172 ft 320 kts 60°
2026-05-05 08:16 -34.33037 150.31933 17971 ft 306 kts 60°
2026-05-05 08:17 -34.32044 150.34156 17721 ft 294 kts 60°
2026-05-05 08:17 -34.31085 150.36300 17348 ft 287 kts 60°
2026-05-05 08:17 -34.30138 150.38411 16835 ft 285 kts 60°
2026-05-05 08:17 -34.29193 150.40512 16332 ft 283 kts 60°
2026-05-05 08:18 -34.28256 150.42595 15856 ft 281 kts 61°
2026-05-05 08:18 -34.27327 150.44659 15403 ft 278 kts 61°
2026-05-05 08:18 -34.26408 150.46708 14938 ft 276 kts 61°
2026-05-05 08:18 -34.25495 150.48743 14469 ft 275 kts 62°
2026-05-05 08:19 -34.24587 150.50769 14028 ft 272 kts 62°
2026-05-05 08:19 -34.23692 150.52771 13563 ft 269 kts 62°
2026-05-05 08:19 -34.22809 150.54755 13087 ft 267 kts 62°
2026-05-05 08:19 -34.21936 150.56721 12612 ft 264 kts 62°
2026-05-05 08:20 -34.21068 150.58671 12151 ft 262 kts 62°
2026-05-05 08:20 -34.20207 150.60602 11707 ft 260 kts 61°
2026-05-05 08:20 -34.19355 150.62512 11262 ft 257 kts 61°
2026-05-05 08:20 -34.18506 150.64405 10821 ft 256 kts 61°
2026-05-05 08:21 -34.17661 150.66287 10490 ft 264 kts 60°
2026-05-05 08:21 -34.16789 150.68226 10294 ft 254 kts 60°
2026-05-05 08:21 -34.15965 150.70055 9911 ft 250 kts 60°
2026-05-05 08:21 -34.15135 150.71896 9439 ft 249 kts 60°
2026-05-05 08:22 -34.14312 150.73717 9021 ft 246 kts 60°
2026-05-05 08:22 -34.13500 150.75515 8585 ft 243 kts 60°
2026-05-05 08:22 -34.12697 150.77297 8160 ft 240 kts 60°
2026-05-05 08:22 -34.11902 150.79061 7755 ft 238 kts 60°
2026-05-05 08:23 -34.11116 150.80805 7341 ft 236 kts 60°
2026-05-05 08:23 -34.10336 150.82537 6924 ft 234 kts 60°
2026-05-05 08:23 -34.09563 150.84253 6515 ft 231 kts 60°
2026-05-05 08:23 -34.08799 150.85946 6106 ft 229 kts 60°
2026-05-05 08:24 -34.08048 150.87597 5698 ft 227 kts 61°
2026-05-05 08:24 -34.07278 150.89276 5400 ft 230 kts 62°
2026-05-05 08:24 -34.06518 150.90944 5175 ft 222 kts 62°
2026-05-05 08:24 -34.05786 150.92567 5072 ft 221 kts 63°
2026-05-05 08:25 -34.05055 150.94198 5035 ft 221 kts 63°
2026-05-05 08:25 -34.04325 150.95830 5019 ft 221 kts 63°
2026-05-05 08:25 -34.03598 150.97463 5009 ft 221 kts 63°
2026-05-05 08:25 -34.02768 150.99023 5006 ft 224 kts 41°
2026-05-05 08:26 -34.01400 150.99897 5042 ft 227 kts
2026-05-05 08:26 -33.99861 150.99701 5064 ft 225 kts 333°
2026-05-05 08:26 -33.98476 150.98830 5024 ft 224 kts 330°
2026-05-05 08:26 -33.97091 150.97959 4984 ft 225 kts 334°
2026-05-05 08:27 -33.95655 150.97217 4925 ft 225 kts 339°
2026-05-05 08:27 -33.94172 150.96612 4890 ft 225 kts 343°
2026-05-05 08:27 -33.92685 150.96128 4843 ft 225 kts 346°
2026-05-05 08:27 -33.91158 150.95716 4800 ft 225 kts 346°
2026-05-05 08:28 -33.89676 150.95131 4754 ft 225 kts 337°
2026-05-05 08:28 -33.88229 150.94423 4698 ft 224 kts 337°
2026-05-05 08:28 -33.86800 150.93671 4645 ft 224 kts 332°
2026-05-05 08:28 -33.85420 150.92812 4608 ft 224 kts 332°
2026-05-05 08:29 -33.83992 150.92068 4561 ft 224 kts 342°
2026-05-05 08:29 -33.82978 150.91724 4535 ft 225 kts 347°
2026-05-05 08:29 -33.81440 150.91446 4479 ft 224 kts 357°
2026-05-05 08:30 -33.78347 150.91732 4418 ft 223 kts 12°
2026-05-05 08:30 -33.76346 150.92316 4381 ft 224 kts 17°
2026-05-05 08:30 -33.75340 150.92683 4365 ft 224 kts 19°
2026-05-05 08:30 -33.73864 150.93276 4341 ft 223 kts 20°
2026-05-05 08:31 -33.72429 150.93953 4394 ft 219 kts 26°
2026-05-05 08:31 -33.71081 150.94793 4358 ft 209 kts 31°
2026-05-05 08:31 -33.69930 150.95687 4329 ft 186 kts 38°
2026-05-05 08:31 -33.69003 150.96671 4303 ft 180 kts 47°
2026-05-05 08:32 -33.68187 150.97813 4275 ft 179 kts 56°
2026-05-05 08:32 -33.67567 150.99091 4249 ft 177 kts 67°
2026-05-05 08:32 -33.67086 151.00472 4231 ft 177 kts 74°
2026-05-05 08:32 -33.66796 151.01892 4205 ft 174 kts 85°
2026-05-05 08:33 -33.66693 151.03323 4178 ft 174 kts 90°
2026-05-05 08:33 -33.66742 151.04778 4153 ft 172 kts 100°
2026-05-05 08:33 -33.66996 151.06165 4125 ft 173 kts 108°
2026-05-05 08:33 -33.67379 151.07515 4108 ft 169 kts 116°
2026-05-05 08:34 -33.67933 151.08758 4082 ft 170 kts 127°
2026-05-05 08:34 -33.68811 151.09640 4071 ft 166 kts 153°
2026-05-05 08:34 -33.69849 151.10263 4050 ft 166 kts 156°
2026-05-05 08:34 -33.70899 151.10829 4044 ft 166 kts 158°
2026-05-05 08:35 -33.71933 151.11349 4038 ft 155 kts 159°
2026-05-05 08:35 -33.72951 151.11834 4022 ft 159 kts 160°
2026-05-05 08:35 -33.73982 151.12303 4017 ft 159 kts 161°
2026-05-05 08:35 -33.75025 151.12758 3828 ft 165 kts 162°
2026-05-05 08:36 -33.76101 151.13216 3433 ft 160 kts 162°
2026-05-05 08:36 -33.77138 151.13652 3063 ft 155 kts 162°
2026-05-05 08:36 -33.78112 151.14054 2982 ft 144 kts 163°
2026-05-05 08:36 -33.79091 151.14449 2991 ft 151 kts 163°
2026-05-05 08:37 -33.80090 151.14842 3001 ft 153 kts 165°
2026-05-05 08:37 -33.81123 151.15205 2856 ft 156 kts 167°
2026-05-05 08:37 -33.82155 151.15505 2623 ft 150 kts 168°
2026-05-05 08:37 -33.83179 151.15771 2418 ft 151 kts 169°
2026-05-05 08:38 -33.84211 151.16039 2222 ft 152 kts 169°
2026-05-05 08:38 -33.85235 151.16304 2005 ft 150 kts 170°
2026-05-05 08:38 -33.86259 151.16561 1825 ft 149 kts 170°
2026-05-05 08:38 -33.87276 151.16824 1605 ft 151 kts 170°
2026-05-05 08:39 -33.88295 151.17083 1415 ft 149 kts 170°
2026-05-05 08:39 -33.89318 151.17347 1203 ft 148 kts 169°
2026-05-05 08:39 -33.90321 151.17616 1011 ft 152 kts 169°
2026-05-05 08:39 -33.91347 151.17883 830 ft 148 kts 170°
2026-05-05 08:40 -33.92362 151.18150 614 ft 151 kts 169°
2026-05-05 08:40 -33.93378 151.18415 433 ft 150 kts 169°
2026-05-05 08:40 -33.94410 151.18681 218 ft 152 kts 169°
2026-05-05 08:40 -33.95432 151.18957 39 ft 150 kts 171°
2026-05-05 08:41 -33.96456 151.19230 353 ft 158 kts 160°
2026-05-05 08:41 -33.97562 151.19813 531 ft 196 kts 158°
2026-05-05 08:41 -33.98958 151.20504 752 ft 234 kts 160°
2026-05-05 08:41 -34.00528 151.21298 1465 ft 251 kts 156°
2026-05-05 08:42 -34.02099 151.22304 2452 ft 260 kts 149°
2026-05-05 08:42 -34.03528 151.23705 3202 ft 281 kts 136°
2026-05-05 08:42 -34.04618 151.25904 3166 ft 332 kts 111°
2026-05-05 08:42 -34.04987 151.28775 3166 ft 347 kts 90°
2026-05-05 08:43 -34.04512 151.31503 3161 ft 323 kts 69°
2026-05-05 08:43 -34.03308 151.33665 3133 ft 302 kts 47°
2026-05-05 08:43 -34.01642 151.35034 3108 ft 281 kts 21°
2026-05-05 08:43 -33.99801 151.35393 3121 ft 259 kts 352°
2026-05-05 08:44 -33.98112 151.34771 3169 ft 256 kts 332°
2026-05-05 08:44 -33.96552 151.33800 3476 ft 255 kts 331°
2026-05-05 08:44 -33.94882 151.32818 4024 ft 278 kts 333°
2026-05-05 08:44 -33.92971 151.31788 4028 ft 325 kts 342°
2026-05-05 08:45 -33.90593 151.31478 4040 ft 366 kts
2026-05-05 08:45 -33.87914 151.31692 4038 ft 403 kts
2026-05-05 08:45 -33.85142 151.32128 4030 ft 386 kts
2026-05-05 08:45 -33.82598 151.32554 4022 ft 353 kts
2026-05-05 08:46 -33.80250 151.32840 4029 ft 327 kts
2026-05-05 08:46 -33.78062 151.32934 4023 ft 302 kts 359°
2026-05-05 08:46 -33.76039 151.32839 4018 ft 280 kts 354°
2026-05-05 08:46 -33.74182 151.32585 4010 ft 259 kts 349°
2026-05-05 08:47 -33.72496 151.32140 4005 ft 237 kts 341°
2026-05-05 08:47 -33.71006 151.31500 4001 ft 224 kts 334°
2026-05-05 08:47 -33.69654 151.30612 4018 ft 213 kts 321°
2026-05-05 08:47 -33.68550 151.29519 3844 ft 205 kts 313°
2026-05-05 08:48 -33.67587 151.28202 3406 ft 217 kts 300°
2026-05-05 08:48 -33.66834 151.26594 3373 ft 226 kts 290°
2026-05-05 08:48 -33.66349 151.24915 3363 ft 201 kts 279°
2026-05-05 08:48 -33.66135 151.23374 3432 ft 178 kts 271°
2026-05-05 08:49 -33.66084 151.21879 3443 ft 180 kts 264°
2026-05-05 08:49 -33.66275 151.20409 3444 ft 177 kts 249°
2026-05-05 08:49 -33.66652 151.19023 3445 ft 174 kts 247°
2026-05-05 08:49 -33.67134 151.17684 3463 ft 174 kts 239°
2026-05-05 08:50 -33.67761 151.16533 3460 ft 157 kts 229°
2026-05-05 08:50 -33.68473 151.15525 3462 ft 160 kts 225°
2026-05-05 08:50 -33.69288 151.14627 3451 ft 158 kts 214°
2026-05-05 08:50 -33.70216 151.13917 3446 ft 159 kts 206°
2026-05-05 08:51 -33.71276 151.13622 3442 ft 159 kts 182°
2026-05-05 08:51 -33.72380 151.13597 3446 ft 157 kts 179°
2026-05-05 08:51 -33.73476 151.13622 3445 ft 159 kts 178°
2026-05-05 08:51 -33.74574 151.13682 3454 ft 157 kts 176°
2026-05-05 08:52 -33.75669 151.13769 3460 ft 157 kts 175°
2026-05-05 08:52 -33.76775 151.13850 3287 ft 161 kts 177°
2026-05-05 08:52 -33.77868 151.13916 3055 ft 156 kts 176°
2026-05-05 08:52 -33.78946 151.14010 2833 ft 154 kts 175°
2026-05-05 08:53 -33.80019 151.14140 2624 ft 155 kts 174°
2026-05-05 08:53 -33.81083 151.14285 2407 ft 153 kts 174°
2026-05-05 08:53 -33.82134 151.14444 2191 ft 152 kts 172°
2026-05-05 08:53 -33.83186 151.14650 2010 ft 153 kts 171°
2026-05-05 08:54 -33.84230 151.14903 1830 ft 154 kts 170°
2026-05-05 08:54 -33.85270 151.15171 1609 ft 150 kts 169°
2026-05-05 08:54 -33.86268 151.15427 1436 ft 147 kts 169°
2026-05-05 08:54 -33.87263 151.15684 1210 ft 145 kts 169°
2026-05-05 08:55 -33.88238 151.15932 1009 ft 143 kts 169°
2026-05-05 08:55 -33.89219 151.16180 812 ft 143 kts 168°
2026-05-05 08:55 -33.90207 151.16444 639 ft 144 kts 168°
2026-05-05 08:55 -33.91189 151.16704 422 ft 143 kts 168°
2026-05-05 08:56 -33.92177 151.16960 283 ft 145 kts 169°
2026-05-05 08:56 -33.93169 151.17207 86 ft 145 kts 169°
2026-05-05 08:56 -33.94135 151.17458 28 ft 135 kts 169°
2026-05-05 08:56 -33.94849 151.17652 29 ft 54 kts 165°
2026-05-05 08:57 -33.95097 151.17730 28 ft 18 kts 158°
2026-05-05 08:57 -33.95145 151.17843 30 ft 13 kts 78°
2026-05-05 08:57 -33.95144 151.17850 30 ft 0 kts 78°
2026-05-05 08:58 -33.95143 151.17854 30 ft 2 kts 78°
2026-05-05 08:58 -33.95104 151.17923 31 ft 19 kts 26°
2026-05-05 08:58 -33.94966 151.17908 30 ft 19 kts 348°
2026-05-05 08:58 -33.94836 151.17875 30 ft 21 kts 347°
2026-05-05 08:59 -33.94685 151.17835 30 ft 22 kts 347°
2026-05-05 08:59 -33.94547 151.17798 30 ft 19 kts 347°
2026-05-05 08:59 -33.94414 151.17760 30 ft 21 kts 345°
2026-05-05 08:59 -33.94262 151.17713 30 ft 24 kts 346°
2026-05-05 09:00 -33.94100 151.17665 29 ft 22 kts 347°
2026-05-05 09:00 -33.93952 151.17626 29 ft 21 kts 347°
2026-05-05 09:00 -33.93864 151.17686 30 ft 14 kts 68°
2026-05-05 09:00 -33.93806 151.17760 30 ft 13 kts 22°
2026-05-05 09:01 -33.93705 151.17794 30 ft 16 kts 13°
2026-05-05 09:01 -33.93638 151.17813 30 ft 6 kts 13°
2026-05-05 09:01 -33.93606 151.17820 30 ft 4 kts
2026-05-05 09:01 -33.93593 151.17822 30 ft 0 kts
2026-05-05 09:02 -33.93575 151.17826 30 ft 10 kts
2026-05-05 09:02 -33.93538 151.17821 30 ft 4 kts 329°
2026-05-05 09:02 -33.93528 151.17784 30 ft 3 kts 283°
2026-05-05 09:02 -33.93527 151.17776 30 ft 1 kts 282°
2026-05-05 09:03 -33.93525 151.17770 30 ft 0 kts 284°